Find Starlink 34170

NORAD ID: 63955 Int'l Des: 2025-099 Owner: SPXS Country: US Constellation: starlink operational
LEOCIRCULAR

現在のビュー

3D地球を読み込み中...

About Starlink 34170

Starlink 34170 (NORAD 63955) is a starlink constellation satellite (v2 mini) launched May 13, 2025 by SPXS of US. It operates in LEO, CIRCULAR orbit with a mass of 575.00 kg.

次回通過

Passes for default location (London). Set your location on the main map for personalized predictions.

高度履歴

Loading altitude history...

軌道要素

1 63955U 25099D 26262.43798109 .00010941 00000-0 40637-3 0 9990
2 63955 43.0015 162.3787 0002256 268.1022 91.9572 15.27592601 76951
Epoch: Sep 19, 2026 • Age: 43 hours

現在のステータス

高度 487.1 km
遠地点 / 近地点 N/A
速度 7.62 km/s
衛星直下点 -21.00°S, 90.81°W
打ち上げ日 May 13, 2025
運用期間 1.3 years
タイプ internet

技術仕様

分類 Payload
質量 575.00 kg
乾燥質量 530.00 kg
長さ 0.30 m
スパン 29.00 m
形状 ? Box + pan
製造者 SPXS
バスタイプ Starlink V2MO
フェーズステータス In Orbit
所有者/国 SPXS/US

Most Searched